Regional Weather Roundup
Issued by NWS

Home | Current Version | Previous Version | Text Only | Print | Product List | Glossary Off
Versions: 1 2 3 4 5 6 7 8 9 10 11 12 13 14 15 16 17 18 19 20 21 22 23 24 25 26 27 28 29 30 31 32 33 34 35 36 37 38 39 40 41 42 43 44 45 46 47 48 49 50

000
ASUS45 KTFX 300610
RWRMT
MONTANA REGIONAL WEATHER ROUNDUP
NATIONAL WEATHER SERVICE GREAT FALLS MT
1200 AM MDT THU MAR 30 2017

NOTE: "FAIR" INDICATES FEW OR NO CLOUDS BELOW 12000 FEET WITH NO
SIGNIFICANT WEATHER AND/OR OBSTRUCTIONS TO VISIBILITY.

MTZ001>007-043-300700-
WEST OF THE DIVIDE

CITY           SKY/WX    TMP DP  RH WIND       PRES   REMARKS
KALISPELL      LGT RAIN  42  41  96 SW7       29.80F
MISSOULA       CLOUDY    47  40  76 S10       29.85F
BUTTE          CLOUDY    42  34  73 S5        29.88F
MULLAN PASS    LGT RAIN  33  33 100 SW10G20   29.81F WCI  25
ANACONDA         N/A     43  34  70 S13       29.86F
DEER LODGE       N/A     41  36  81 SE6       29.86F
EUREKA           N/A     45  39  81 SE14      29.78F
HAMILTON         N/A     45  37  76 S13       29.86F
RONAN            N/A     47  40  76 CALM      29.88F
$$

MTZ008-052>055-300700-
SOUTHWEST MONTANA

CITY           SKY/WX    TMP DP  RH WIND       PRES   REMARKS
BOZEMAN        LGT RAIN  44  41  89 NE6       29.86F
DILLON         LGT RAIN  41  38  89 NW5       29.87F
W YELLOWSTONE  MIX PCPN  32  32 100 CALM      29.96F
ENNIS          CLOUDY    39  37  93 S14       29.94F WCI  31
THREE FORKS      N/A     45   1  16 SW2       29.87F
$$

MTZ009-010-012-014-046-048-049-054-300700-
EAST SLOPES AND CENTRAL MONTANA

CITY           SKY/WX    TMP DP  RH WIND       PRES   REMARKS
CUT BANK       MOCLDY    45  32  60 MISG      29.71F
GREAT FALLS    CLOUDY    49  34  56 SW21G30   29.75F
MALMSTROM AFB  CLOUDY    51  35  55 SW22      29.75F
HELENA         MOCLDY    46  38  73 SE3       29.82F
AUGUSTA          N/A     43  32  64 S10       29.74F
BOWMANS CRNR     N/A     42  34  73 S14       29.76F
CHOTEAU          N/A     46  32  57 SW7       29.74F
CONRAD           N/A     39  34  82 CALM      29.78S
FAIRFIELD      MOCLDY    45  32  60 S13       29.73F
POWER          MOCLDY    46  34  63 SW12      29.73F
RAYNESFORD     CLOUDY    51  33  50 SW12      29.76F
$$

MTZ011-013-016-021-045-047-050-051-300700-
NORTH CENTRAL MONTANA

CITY           SKY/WX    TMP DP  RH WIND       PRES   REMARKS
HAVRE          CLOUDY    47  38  71 SW12      29.71F
LEWISTOWN      MOCLDY    47  35  63 SW10      29.77F
N BAR RANCH    MOCLDY    39  30  70 W7        29.80F
CHINOOK          N/A     46  34  61 CALM      29.71F
DENTON         CLOUDY    48  34  60 S6        29.72F
FORT BENTON      N/A     50  36  57 MISG      29.74F
GEYSER         CLOUDY    50  34  53 W12       29.74F
GRASS RANGE    MOCLDY    45  35  67 W10       29.73F
JUDITH GAP     CLOUDY    46  36  66 SW20G26   29.79F
STANFORD       CLOUDY    50  33  52 W16       29.76F
WINIFRED       MOCLDY    48  34  56 W3        29.75F
$$

MTZ017>020-022>027-061-062-300700-
NORTHEAST MONTANA

CITY           SKY/WX    TMP DP  RH WIND       PRES   REMARKS
GLASGOW        CLOUDY    46  34  62 E9        29.76F
JORDAN           N/A     49  33  54 S6        29.75F
SIDNEY         PTCLDY    40  33  76 CALM      29.81F
WOLF POINT     CLOUDY    47  36  65 NE5       29.78F
MALTA          CLOUDY    52  32  46 E6        29.72F
PLENTYWOOD       N/A     45  30  57 NE3       29.79F
POPLAR           N/A     46  32  57 SE5       29.79F
$$

MTZ028>42-056>058-300700-
SOUTHCENTRAL AND SOUTHEAST MONTANA

CITY           SKY/WX    TMP DP  RH WIND       PRES   REMARKS
BAKER          CLOUDY    43  33  68 SE8       29.84F
BILLINGS       CLOUDY    52  36  54 NW12      29.80F
LIVINGSTON     CLOUDY    48  33  56 SW21G30   29.84F
MILES CITY     CLOUDY    49  33  54 S7        29.79F
BIG TIMBER     CLEAR     48  36  61 W24G32    29.84R
FORSYTH          N/A     52  32  46 E5        29.78F
HARLOWTON      CLOUDY    48  37  67 W18       29.80F
LAUREL           N/A     53  30  41 MISG      29.82S
$$

REGIONAL REPORTS...DAKOTAS

CITY           SKY/WX    TMP DP  RH WIND       PRES   REMARKS
WILLISTON      CLOUDY    44  33  65 CALM      29.81F
MINOT          CLOUDY    49  39  68 W3        29.81F
DICKINSON      CLOUDY    41  36  82 S12       29.83F
BEACH          CLOUDY    39  32  75 CALM      29.85F
TIOGA          MOCLDY    41  34  75 W3        29.82F
WATFORD CITY     N/A     37  36  93 CALM      29.81F
BISMARCK       CLOUDY    50  35  56 S17       29.92F
GRAND FORKS    MOCLDY    43  38  82 S14       29.98F
FARGO          CLEAR     41  37  86 S13       30.03S
BUFFALO SD       N/A     43  38  82 S14       29.79F
RAPID CITY     CLEAR     37  34  89 SE7       29.91F WCI  32
$$

REGIONAL REPORTS...WYOMING/IDAHO/WASHINGTON

CITY           SKY/WX    TMP DP  RH WIND       PRES   REMARKS
GILLETTE       CLEAR     43  37  79 S13       29.85F
SHERIDAN       CLOUDY    45  35  68 S6        29.82F
BUFFALO WY     CLOUDY    44  30  57 NW9       29.85F
CODY           CLOUDY    48  32  53 W13G23    29.88S
YELLOWSTONE LA   N/A     31  31 100 CALM      29.99F
IDAHO FALLS    CLOUDY    49  37  63 S8        29.94F
SALMON         CLOUDY    43  41  93 CALM      29.88F
BOISE          LGT RAIN  50  47  89 S6        29.93F
SPOKANE        CLOUDY    47  43  86 SW13G25   29.82S
$$

REGIONAL REPORTS...ALBERTA

CITY           SKY/WX    TMP DP  RH WIND       PRES   REMARKS
EDMONTON       CLOUDY    36  34  93 E6        29.68F WCI  31
CALGARY        PTCLDY    32  25  74 N3        29.62F
LETHBRIDGE     MOCLDY    36  28  75 SW10      29.67F WCI  28
MEDICINE HAT   MOCLDY    46  34  61 SW8       29.66S
WATERTON GATE    N/A     45  34  65 SW16G29     N/A
CARDSTON         N/A     45  30  57 SW9         N/A
MILK RIVER       N/A     41  34  75 SW10        N/A
$$

REGIONAL REPORTS...SASKATCHEWAN

CITY           SKY/WX    TMP DP  RH WIND       PRES   REMARKS
SWIFT CURRENT  CLOUDY    45  34  65 SE9       29.71F
REGINA         CLOUDY    45  32  61 E3        29.75F
SASKATOON      FOG       36  34  93 NE14      29.78F VSB 1/4 WCI  27
CYPRESS HILLS    N/A     37  27  65 S7          N/A
ROCKGLEN         N/A     45  28  53 S3          N/A
$$



USA.gov is the U.S. government's official web portal to all federal, state and local government web resources and services.